This is the latest recevied weather packets stored in our database for station/object EA7URS-13. If no packets are shown the sender has not sent any weather packets the latest 10 day(s).
| Time | Temp. | Humidity | Pressure | Rain* | Wind** | Luminosity | Snow |
|---|---|---|---|---|---|---|---|
| 1788632300 | 35° C | 32% | 1010.1 hPa | 0 mm | - | 32 W/m² | - |
| 1788631999 | 35.56° C | 31% | 1010.2 hPa | 0 mm | - | 48 W/m² | - |
| 1788631698 | 35.56° C | 31% | 1010.2 hPa | 0 mm | - | 48 W/m² | - |
| 1788631397 | 35.56° C | 31% | 1010 hPa | 0 mm | - | 58 W/m² | - |
| 1788631096 | 35.56° C | 31% | 1010 hPa | 0 mm | - | 58 W/m² | - |
| 1788630794 | 35.56° C | 31% | 1009.9 hPa | 0 mm | - | 76 W/m² | - |
| 1788630493 | 35.56° C | 31% | 1009.9 hPa | 0 mm | - | 76 W/m² | - |
| 1788630192 | 35.56° C | 31% | 1010.1 hPa | 0 mm | - | 92 W/m² | - |
| 1788629891 | 35.56° C | 31% | 1010.1 hPa | 0 mm | - | 92 W/m² | - |
| 1788629590 | 35.56° C | 31% | 1010 hPa | 0 mm | - | 121 W/m² | - |
| 1788629289 | 35.56° C | 31% | 1010 hPa | 0 mm | - | 121 W/m² | - |
| 1788628988 | 35° C | 33% | 1010 hPa | 0 mm | - | 137 W/m² | - |
| 1788628687 | 35° C | 33% | 1010 hPa | 0 mm | - | 137 W/m² | - |
| 1788628386 | 34.44° C | 37% | 1009.9 hPa | 0 mm | - | 150 W/m² | - |
| 1788628085 | 34.44° C | 37% | 1009.9 hPa | 0 mm | - | 150 W/m² | - |
| 1788627803 | 34.44° C | 36% | 1010.2 hPa | 0 mm | - | 80 W/m² | - |
| 1788627482 | 34.44° C | 36% | 1010.2 hPa | 0 mm | - | 80 W/m² | - |
| 1788627181 | 35° C | 33% | 1010 hPa | 0 mm | - | 72 W/m² | - |
| 1788626880 | 35° C | 33% | 1010 hPa | 0 mm | - | 72 W/m² | - |
| 1788626579 | 35° C | 35% | 1009.9 hPa | 0 mm | - | 80 W/m² | - |
| 1788626278 | 35° C | 35% | 1009.9 hPa | 0 mm | - | 80 W/m² | - |
| 1788625977 | 34.44° C | 37% | 1010 hPa | 0 mm | - | 96 W/m² | - |
| 1788625676 | 34.44° C | 37% | 1010 hPa | 0 mm | - | 96 W/m² | - |
| 1788625375 | 34.44° C | 37% | 1010.2 hPa | 0 mm | - | 109 W/m² | - |
| 1788625074 | 34.44° C | 37% | 1010.2 hPa | 0 mm | - | 109 W/m² | - |
* Rain latest hour (hover to see other rain measurements)
** Current wind speed in m/s (hover to see current wind gust speed)